LKPREDDC [PF2013]

Guest
Details From LKPR - Ruzyne
To EDDC - Dresden
Flight Number PF2013
Tags Real Decoded Commercial
Created
Modified
Stats Distance 65 nm / 121 km
Max Altitude 0 ft / 0 m
Waypoints 2
Social Downloads 14
Likes 0
Share VATSIM

Download

Looking for another format? Having issues loading an existing format? Contact us
Advertisement - Login to hide

Notes

Decoded

Route

LKPR EDDC

ID Type Via Altitude Latitude Longitude Leg Dist Tot Dist Heading (true) Name
O LKPR APT - 0 ft / 0 m 50.08771˚ 14.26668˚ - 0 nm - -
O EDDC APT - 0 ft / 0 m 51.12425˚ 13.75544˚ 65 nm 65 nm 343° / 342° -

Altitude Profile

Advertisement - Login to hide

LKPR

Details ICAO LKPR (PRG)
Name Praha - Ruzyne
Region Czech Republic
Timezone Europe/Prague (UTC+1.0)
Stats Elevation 1,246 ft / 380 m (AMSL)
Location 50.101144° 14.262963°
Runways 3
Magnetic Variation 3.863° E

METAR

LKPR 180300Z 22005KT 9999 FEW035 M02/M04 Q1022 R24/22//95 R30/750293 NOSIG

Decode

TAF

TAF LKPR 171700Z 1718/1900 28008KT 9999 BKN043 PROB30 TEMPO 1718/1800 7000 SHSN BKN013 TEMPO 1800/1803 SCT035 BECMG 1800/1802 21003KT BECMG 1805/1809 17005KT BECMG 1816/1818 VRB02KT CAVOK

Decode

Departure Runways

ID Width Length Bearing (true) Bearing (mag) Surface Threshold Offset Overrun Length
04 197 ft / 60 m 6,932 ft / 2,113 m 36.80° 32.94° Asphalt 0 ft / 0 m 0 ft / 0 m
06 148 ft / 45 m 12,160 ft / 3,706 m 64.92° 61.06° Concrete 0 ft / 0 m 0 ft / 0 m
12 148 ft / 45 m 10,622 ft / 3,238 m 126.99° 123.13° Concrete 0 ft / 0 m 0 ft / 0 m
22 197 ft / 60 m 6,932 ft / 2,113 m 216.81° 212.95° Asphalt 0 ft / 0 m 591 ft / 180 m
24 148 ft / 45 m 12,160 ft / 3,706 m 244.96° 241.10° Concrete 0 ft / 0 m 0 ft / 0 m
30 148 ft / 45 m 10,622 ft / 3,238 m 307.01° 303.15° Concrete 0 ft / 0 m 0 ft / 0 m

EDDC

Details ICAO EDDC (DRS)
Name Dresden
Region Germany - Civil
Timezone Europe/Berlin (UTC+1.0)
Stats Elevation 752 ft / 229 m (AMSL)
Location 51.134366° 13.768065°
Runways 1
Magnetic Variation 3.800° E

METAR

EDDC 180250Z 16004KT 9999 FEW030 BKN044 M01/M02 Q1022 R04/29//95

Decode

TAF

TAF EDDC 172300Z 1800/1824 26003KT 9999 BKN030 BECMG 1800/1803 15005KT

Decode

Destination Runways

ID Width Length Bearing (true) Bearing (mag) Surface Threshold Offset Overrun Length
04 197 ft / 60 m 9,348 ft / 2,849 m 40.74° 36.94° Concrete 0 ft / 0 m 0 ft / 0 m
22 197 ft / 60 m 9,348 ft / 2,849 m 220.76° 216.96° Concrete 984 ft / 300 m 0 ft / 0 m

Approach Navaids

Runway Type Ident Frequency Range Bearing (true) Bearing (mag) Slope Elevation
04 Localiser IDRE 110.50 MHz 18 nm / 33 km 40.83° 37.03° - 703 ft / 214 m (AMSL)
04 Glidescope IDRE 110.50 MHz 10 nm / 19 km 40.83° 37.03° 3.00° 755 ft / 230 m (AMSL)
22 Localiser IDRW 109.70 MHz 18 nm / 33 km 220.81° 217.01° - 755 ft / 230 m (AMSL)
22 Glidescope IDRW 109.70 MHz 10 nm / 19 km 220.81° 217.01° 3.00° 703 ft / 214 m (AMSL)

Popular Alternatives